Henderson, KY

11:38 PM CST on December 10, 2019 (GMT -0600)
Henderson City-County

Weather History for KEHR - October, 2019

Change the Weather History Date:

Friday, October 18, 2019

  Actual Average Record
Temperature  
Mean Temperature 49 °F -  
Max Temperature 66 °F 67 °F 87 °F (1953)
Min Temperature 32 °F 45 °F 26 °F (1948)
Degree Days  
Heating Degree Days 16    
Moisture  
Dew Point 37 °F    
Average Humidity 78    
Maximum Humidity 100    
Minimum Humidity 36    
Precipitation  
Precipitation 0.00 in - - ()
Sea Level Pressure  
Sea Level Pressure 30.04 in    
Wind  
Wind Speed 2 mph (SE)    
Max Wind Speed 10 mph    
Max Gust Speed -    
Visibility 7 miles    
Events Fog , Rain    
Averages and records for this station are not official NWS values.
T = Trace of Precipitation, MM = Missing Value Source: NWS Daily Summary

Daily Weather History Graph

Daily Weather History Graph

Search for Another Location

Airport or City:

Astronomy

Oct. 18, 2019 Rise Set
Actual Time 7:01 AM CDT 6:09 PM CDT
Civil Twilight 6:35 AM CDT 6:35 PM CDT
Nautical Twilight 6:04 AM CDT 7:06 PM CDT
Astronomical Twilight 5:34 AM CDT 7:36 PM CDT
Moon 9:29 PM CDT (10/18) 11:30 AM CDT (10/18)
Length of Visible Light 12h 00m
Length of Day
11h 07m
Waning Gibbous, 78% of the Moon is Illuminated
Oct 18
Waning Gibbous
Oct 21
Last Quarter
Oct 27
New
Nov 4
First Quarter
Nov 12
Full

Hourly Weather History & Observations

Time (CDT) Temp. Windchill Dew Point Humidity Pressure Visibility Wind Dir Wind Speed Gust Speed Precip Events Conditions
12:56 AM 35.1 °F - 34.0 °F 96% 30.05 in 10.0 mi Calm Calm - N/A   Clear
1:56 AM 37.0 °F - 36.0 °F 96% 30.05 in 10.0 mi Calm Calm - N/A   Clear
2:56 AM 34.0 °F 31.0 °F 33.1 °F 96% 30.05 in 10.0 mi WSW 3.5 mph - N/A   Clear
3:56 AM 34.0 °F - 33.1 °F 96% 30.04 in 10.0 mi Calm Calm - N/A   Scattered Clouds
4:04 AM 33.8 °F 28.6 °F 33.8 °F 100% 30.03 in 10.0 mi ENE 5.8 mph - N/A   Mostly Cloudy
4:23 AM 35.6 °F - 35.6 °F 100% 30.03 in 1.5 mi Calm Calm - N/A   Overcast
4:26 AM 35.6 °F - 35.6 °F 100% 30.04 in 0.8 mi Calm Calm - N/A   Overcast
4:30 AM 35.6 °F - 35.6 °F 100% 30.04 in 0.2 mi Calm Calm - N/A Fog Fog
4:56 AM 36.0 °F 31.1 °F 35.1 °F 97% 30.06 in 0.2 mi SW 5.8 mph - N/A Fog Fog
5:28 AM 35.6 °F - 35.6 °F 100% 30.06 in 0.5 mi Calm Calm - 0.00 in Fog , Rain Light Rain
5:36 AM 35.6 °F 32.8 °F 33.8 °F 93% 30.06 in 1.0 mi South 3.5 mph - 0.00 in Rain Light Rain
5:41 AM 33.8 °F 29.6 °F 33.8 °F 100% 30.07 in 2.0 mi SSW 4.6 mph - 0.00 in   Scattered Clouds
5:56 AM 34.0 °F - 33.1 °F 96% 30.07 in 8.0 mi Calm Calm - 0.00 in   Clear
6:56 AM 33.1 °F - 32.0 °F 96% 30.09 in 4.0 mi Calm Calm - N/A   Clear
7:17 AM 33.8 °F - 32.0 °F 93% 30.09 in 1.8 mi Calm Calm - N/A   Clear
7:21 AM 32.0 °F 28.7 °F 32.0 °F 100% 30.09 in 3.0 mi West 3.5 mph - N/A   Clear
7:56 AM 39.0 °F - 39.0 °F 100% 30.11 in 4.0 mi Calm Calm - N/A   Clear
8:02 AM 37.4 °F - 37.4 °F 100% 30.10 in 1.8 mi Calm Calm - N/A   Clear
8:11 AM 39.2 °F - 39.2 °F 100% 30.10 in 3.0 mi Calm Calm - N/A   Clear
8:56 AM 46.9 °F - 42.1 °F 83% 30.12 in 9.0 mi Calm Calm - N/A   Clear
9:56 AM 52.0 °F - 41.0 °F 66% 30.11 in 10.0 mi East 4.6 mph - N/A   Clear
10:56 AM 57.9 °F - 41.0 °F 53% 30.09 in 10.0 mi SSE 9.2 mph - N/A   Clear
11:56 AM 60.1 °F - 37.9 °F 44% 30.08 in 10.0 mi Variable 6.9 mph - N/A   Clear
12:56 PM 63.0 °F - 39.0 °F 41% 30.05 in 10.0 mi ESE 10.4 mph - N/A   Clear
1:56 PM 64.0 °F - 37.9 °F 38% 30.02 in 10.0 mi Variable 4.6 mph - N/A   Clear
2:56 PM 66.0 °F - 37.9 °F 36% 29.99 in 10.0 mi South 6.9 mph - N/A   Clear
3:56 PM 66.9 °F - 39.0 °F 36% 29.98 in 10.0 mi SSE 6.9 mph - N/A   Clear
4:56 PM 66.0 °F - 37.9 °F 36% 29.97 in 10.0 mi ESE 6.9 mph - N/A   Clear
5:56 PM 62.1 °F - 39.0 °F 43% 29.96 in 10.0 mi East 4.6 mph - N/A   Clear
6:56 PM 59.0 °F - 39.0 °F 48% 29.95 in 10.0 mi East 3.5 mph - N/A   Clear
7:56 PM 55.9 °F - 39.9 °F 55% 29.94 in 10.0 mi East 4.6 mph - N/A   Clear
8:56 PM 46.0 °F 44.8 °F 39.9 °F 79% 29.94 in 10.0 mi East 3.5 mph - N/A   Clear
9:56 PM 51.1 °F - 39.9 °F 66% 29.94 in 10.0 mi East 5.8 mph - N/A   Clear
10:56 PM 44.1 °F - 39.0 °F 82% 29.94 in 10.0 mi Calm Calm - N/A   Clear
11:56 PM 46.0 °F - 39.9 °F 79% 29.92 in 10.0 mi Calm Calm - N/A   Clear